Regional Weather Roundup
Issued by NWS

Home | Current Version | Previous Version | Text Only | Print | Product List | Glossary On
Versions: 1 2 3 4 5 6 7 8 9 10 11 12 13 14 15 16 17 18 19 20 21 22 23 24 25 26 27
000
ASUS44 KJAN 212110
RWRMS

MISSISSIPPI HOURLY WEATHER ROUNDUP
NATIONAL WEATHER SERVICE JACKSON MS
400 PM CDT SAT APR 21 2018

NOTE: "FAIR: INDICATES FEW OR NO CLOUDS BELOW 12,000 FEET WITH NO
SIGNIFICANT WEATHER AND/OR OBSTRUCTIONS TO VISIBILITY.

MSZ001>002-007>008-010>013-018>021-025>028-034>036-212200-
NORTHWEST MISSISSIPPI

CITY           SKY/WX    TMP DP  RH WIND       PRES   REMARKS
BATESVILLE       N/A    N/A N/A N/A MISG        N/A
CLARKSDALE     SUNNY     77  48  36 SE14      30.07F
CLEVELAND      FAIR      74  52  46 SE13      30.06S
GREENWOOD      PTSUNNY   77  50  38 SE14      30.06F
GREENVILLE     PTSUNNY   75  49  39 SE14      30.05F
OLIVE BRANCH   PTSUNNY   73  43  33 SE12G20   30.08F
OXFORD         FAIR      73  45  35 SE12G21   30.09F
TUNICA           N/A     73  43  33 SE10      30.09R
WINONA         MOCLDY    74  51  45 SE8       30.07F
$$

MSZ003>006-009-014>017-022>024-029>033-037>039-212200-
NORTHEAST MISSISSIPPI

CITY           SKY/WX    TMP DP  RH WIND       PRES   REMARKS
ABERDEEN         N/A     77  59  53 S10       30.12F
COLUMBUS AFB   FAIR      76  53  44 S13G22    30.10F
CORINTH        FAIR      77  37  24 SE16G22   30.10F
GOLDN TRIANGLE FAIR      76  54  46 S15       30.11F
STARKVILLE     FAIR      75  52  43 S8        30.11F
TUPELO         FAIR      75  44  33 SE12      30.10F
$$

MSZ040-058-212200-
CENTRAL MISSISSIPPI

CITY           SKY/WX    TMP DP  RH WIND       PRES   REMARKS
JACKSON INTL   CLOUDY    76  55  48 SE14      30.07S
JACKSON HAWKNS PTSUNNY   76  56  49 S16       30.08S
MADISON        FAIR      73  54  49 SE5       30.07S
MERIDIAN KEY   PTSUNNY   76  51  41 SE9       30.09F
MERIDIAN NAS   NOT AVBL
RAYMOND        FAIR      75  57  53 SE9G16    30.06F
VICKSBURG VKS  CLEAR     77  50  38 S12       30.06F
$$

MSZ059>079-212200-
SOUTH MISSISSIPPI

CITY           SKY/WX    TMP DP  RH WIND       PRES   REMARKS
COLUMBIA       FAIR      77  57  50 S12       30.12S
HATTIESBURG    PTSUNNY   76  57  51 SE13      30.08F
LAUREL         FAIR      77  53  43 SE10      30.08F
MCCOMB         FAIR      78  50  37 S12       30.06F
NATCHEZ        FAIR      76  54  46 S9        30.06F
PINE BELT      FAIR      76  56  49 SE12G20   30.09F
$$

MSZ080>082-212200-
COASTAL MISSISSIPPI

CITY           SKY/WX    TMP DP  RH WIND       PRES   REMARKS
BILOXI         FAIR      74  64  69 SE10G17   30.10F
PASCAGOULA     FAIR      75  60  59 SE13      30.11F
GULFPORT       FAIR      75  64  68 SE20      30.10F
$$

LAZ007>009-015>016-023>026-212200-
NORTHEAST LOUISIANA

CITY           SKY/WX    TMP DP  RH WIND       PRES   REMARKS
BASTROP        FAIR      70  46  42 E6        30.03F
TALLULAH/VBURG FAIR      75  51  43 S8        30.05F
VIDALIA        FAIR      75  53  45 SE7       30.03F
$$




USA.gov is the U.S. government's official web portal to all federal, state and local government web resources and services.